TITAN 4 CENTAUR R/B, 23247

Orbit data source: Space-Track

TITAN 4 CENTAUR R/B, 23247 is space debris in GEO originally from a launch on Sat, 27 Aug 1994 UTC launched from the Air Force Eastern Test Range (AFETR). Debris objects in space refer to the collection of defunct objects orbiting the Earth. Examples of debris include non-operational satellites, rocket bodies, and fragments generated from explosions, collisions, or faulty payload assembly.

Not visible in the next 10 days
Identifier
23247, 1994-054B
Orbit
GEO
Country
Flag of USUS
Related business
Manufacturer
MM/San Diego
Mission
Spacecraft
Bus & Motor
CENTAUR T, Unknown motor
Mass
~2,775 kg wet, ~2,775 kg dry
Launch date (UTC)
1994-08-27 (32 years ago)
Launch vehicle
Unknown
Launch site
Air Force Eastern Test Range (AFETR)
Object type
Payload
Rocket body
Debris
Shape & HBR
Cyl, 4.5 m
Radar Cross Section
37.970 m², Medium (>0.1 m² and < 1m²)

Expand to show TLE details & history
Last TLE update: 1 day ago

TLE from 1 day ago
0 TITAN 4 CENTAUR R/B
1 23247U 94054B   26167.00264295 -.00000200  00000-0  00000-0 0  9993
2 23247  12.2390 354.4444 0114772 354.8384   5.0330  0.99579945 25513
Epoch: 2026-06-16T00:03Z
TLE epoch observation values (Epoch: 2026-06-16T00:03:48.350Z)
Latitude
0.00002°
Longitude
89.20284°
Altitude
35,499.759 km
Speed
3.103 km/s
True Right ascension
23h 37m 44s
True Declination
0° 00' 00"
Sunlit
Object was in daylight at epoch
Visualization orbit readout
Latitude
Unknown
Longitude
Unknown
Altitude
Unknown
Speed
Unknown
Apparent Right ascension
Unknown
Apparent Declination
Unknown
Sunlit
N/A
Visualization observer readout
Local Sidereal Time
11:55:00
Azimuth
Unknown
Elevation
Unknown
Doppler factor
Unknown
Orbital elements
Apogee altitude
36,468.844 km
Perigee altitude
35,496.477 km
Semi-major axis
42,360.798 km
Eccentricity
0.01148
Inclination
12.239°
RAAN
354.4444°
Arg. of periapsis
354.8384°
True anomaly
5.15005°
Mean anomaly
5.033°
Eccentric anomaly
5.09136°
Mean motion
0.24894 °/min
Orbital period
1,446.12 mins
BSTAR
0
Loading maneuver chart data...
Computing Atmospheric mass density...
Loading historical data...
Loading historical data...
Loading historical data...
Loading historical data...
Loading historical data...
Loading historical data...
Loading historical data...
Other satellites on launch #54 in the year 1994 (1994-08-27 UTC)

Documentation

Showing up to 5 results
|